User: anonymous   Login
Location: Berg
(47.2344°N, 9.5296°E)
Time: 09:34:27
(UTC+00:00)
Language:

Nadezhda 4 Rocket - Orbit

View from above orbital plane
View from above orbital plane
View from above satellite
View from above satellite

Ground track
Ground track

The orbit data is extracted from the following two-line orbital elements,

1 23180U 94041B   21100.58562961  .00000006  00000-0 -89393-5 0  9992
2 23180  82.9464 334.1528 0027675 278.2424  96.4749 13.77996086344546
Epoch (UTC): 10 April 2021 14:03:18
Eccentricity: 0.0027675
inclination: 82.9464°
perigee height: 950 km
apogee height: 991 km
right ascension of ascending node: 334.1528°
argument of perigee: 278.2424°
revolutions per day: 13.77996086
mean anomaly at epoch: 96.4749°
orbit number at epoch: 34454

The dashed part of the orbit path shows where the satellite is in the earth's shadow,  

DLR